contact:dominique.lefevre@mio.osupytheas.fr, maurice.libes@osupytheas.fr, didier.mallarino@osupytheas.fr
Project:EMSO http://www.emso-fr.org/EMSO-France
Depth: 2436.0 m
Title:EMSO Ligure Ouest : Data MII capteur MICROCAT
DateTime_Computer,Latitude,Longitude,Temperature,Conductivity,Pressure,DateTime_Instrument
DateTime_Computer,Latitude,Longitude,degC,S m-1,dbar,DateTime_Instrument
2020-10-10T00:02:02Z,42.805,6.029,13.2974,4.59981,2470.194,2020-10-10T02:02:55Z
2020-10-10T00:05:05Z,42.805,6.029,13.2977,4.59981,2470.217,2020-10-10T02:05:59Z
2020-10-10T00:08:08Z,42.805,6.029,13.2969,4.59982,2470.194,2020-10-10T02:09:02Z
2020-10-10T00:11:11Z,42.805,6.029,13.2973,4.59978,2470.203,2020-10-10T02:12:05Z
2020-10-10T00:14:14Z,42.805,6.029,13.2971,4.59979,2470.217,2020-10-10T02:15:08Z
2020-10-10T00:17:17Z,42.805,6.029,13.2975,4.59981,2470.217,2020-10-10T02:18:11Z
2020-10-10T00:20:21Z,42.805,6.029,13.2971,4.59980,2470.18,2020-10-10T02:21:14Z
2020-10-10T00:23:24Z,42.805,6.029,13.2974,4.59980,2470.18,2020-10-10T02:24:17Z
2020-10-10T00:26:27Z,42.805,6.029,13.2971,4.59981,2470.203,2020-10-10T02:27:20Z
2020-10-10T00:29:30Z,42.805,6.029,13.2971,4.59979,2470.18,2020-10-10T02:30:24Z
2020-10-10T00:32:33Z,42.805,6.029,13.2971,4.59978,2470.203,2020-10-10T02:33:27Z
2020-10-10T00:35:36Z,42.805,6.029,13.2978,4.59978,2470.203,2020-10-10T02:36:30Z
2020-10-10T00:38:39Z,42.805,6.029,13.2971,4.59978,2470.203,2020-10-10T02:39:33Z
2020-10-10T00:41:42Z,42.805,6.029,13.2973,4.59980,2470.156,2020-10-10T02:42:36Z
2020-10-10T00:44:46Z,42.805,6.029,13.2974,4.59978,2470.203,2020-10-10T02:45:39Z
2020-10-10T00:47:49Z,42.805,6.029,13.2973,4.59981,2470.194,2020-10-10T02:48:42Z
2020-10-10T00:50:52Z,42.805,6.029,13.2975,4.59979,2470.18,2020-10-10T02:51:45Z
2020-10-10T00:53:55Z,42.805,6.029,13.2974,4.59980,2470.18,2020-10-10T02:54:49Z
2020-10-10T00:56:58Z,42.805,6.029,13.2970,4.59981,2470.156,2020-10-10T02:57:52Z
2020-10-10T01:00:01Z,42.805,6.029,13.2971,4.59983,2470.156,2020-10-10T03:00:55Z
2020-10-10T01:03:04Z,42.805,6.029,13.2974,4.59980,2470.156,2020-10-10T03:03:58Z
2020-10-10T01:06:07Z,42.805,6.029,13.2974,4.59979,2470.166,2020-10-10T03:07:01Z
2020-10-10T01:09:11Z,42.805,6.029,13.2975,4.59981,2470.171,2020-10-10T03:10:04Z
2020-10-10T01:12:14Z,42.805,6.029,13.2975,4.59978,2470.18,2020-10-10T03:13:07Z
2020-10-10T01:15:17Z,42.805,6.029,13.2973,4.59979,2470.194,2020-10-10T03:16:10Z
2020-10-10T01:18:20Z,42.805,6.029,13.2974,4.59978,2470.203,2020-10-10T03:19:14Z
2020-10-10T01:21:23Z,42.805,6.029,13.2971,4.59979,2470.217,2020-10-10T03:22:17Z
2020-10-10T01:24:26Z,42.805,6.029,13.2977,4.59978,2470.194,2020-10-10T03:25:20Z
2020-10-10T01:27:29Z,42.805,6.029,13.2973,4.59978,2470.18,2020-10-10T03:28:23Z
2020-10-10T01:30:32Z,42.805,6.029,13.2973,4.59978,2470.156,2020-10-10T03:31:26Z
2020-10-10T01:33:36Z,42.805,6.029,13.2968,4.59978,2470.156,2020-10-10T03:34:29Z
2020-10-10T01:36:39Z,42.805,6.029,13.2974,4.59979,2470.156,2020-10-10T03:37:32Z
2020-10-10T01:39:42Z,42.805,6.029,13.2969,4.59978,2470.18,2020-10-10T03:40:35Z
2020-10-10T01:42:45Z,42.805,6.029,13.2974,4.59979,2470.217,2020-10-10T03:43:39Z
2020-10-10T01:45:48Z,42.805,6.029,13.2971,4.59979,2470.194,2020-10-10T03:46:42Z
2020-10-10T01:48:51Z,42.805,6.029,13.2971,4.59981,2470.18,2020-10-10T03:49:45Z
2020-10-10T01:51:54Z,42.805,6.029,13.2976,4.59981,2470.133,2020-10-10T03:52:48Z
2020-10-10T01:54:57Z,42.805,6.029,13.2976,4.59980,2470.156,2020-10-10T03:55:51Z
2020-10-10T01:58:01Z,42.805,6.029,13.2969,4.59979,2470.194,2020-10-10T03:58:54Z
2020-10-10T02:01:04Z,42.805,6.029,13.2975,4.59981,2470.18,2020-10-10T04:01:57Z
2020-10-10T02:04:07Z,42.805,6.029,13.2976,4.59981,2470.171,2020-10-10T04:05:00Z
2020-10-10T02:07:10Z,42.805,6.029,13.2971,4.59982,2470.171,2020-10-10T04:08:04Z
2020-10-10T02:10:13Z,42.805,6.029,13.2972,4.59985,2470.217,2020-10-10T04:11:07Z
2020-10-10T02:13:16Z,42.805,6.029,13.2974,4.59979,2470.147,2020-10-10T04:14:10Z
2020-10-10T02:16:19Z,42.805,6.029,13.2974,4.59980,2470.119,2020-10-10T04:17:13Z
2020-10-10T02:19:22Z,42.805,6.029,13.2974,4.59983,2470.171,2020-10-10T04:20:16Z
2020-10-10T02:22:25Z,42.805,6.029,13.2973,4.59981,2470.156,2020-10-10T04:23:19Z
2020-10-10T02:25:29Z,42.805,6.029,13.2972,4.59981,2470.18,2020-10-10T04:26:22Z
2020-10-10T02:28:32Z,42.805,6.029,13.2974,4.59986,2470.194,2020-10-10T04:29:25Z
2020-10-10T02:31:35Z,42.805,6.029,13.2973,4.59983,2470.18,2020-10-10T04:32:28Z
2020-10-10T02:34:38Z,42.805,6.029,13.2974,4.59982,2470.147,2020-10-10T04:35:32Z
2020-10-10T02:37:41Z,42.805,6.029,13.2970,4.59981,2470.171,2020-10-10T04:38:35Z
2020-10-10T02:40:44Z,42.805,6.029,13.2974,4.59981,2470.18,2020-10-10T04:41:38Z
2020-10-10T02:43:47Z,42.805,6.029,13.2976,4.59981,2470.156,2020-10-10T04:44:41Z
2020-10-10T02:46:50Z,42.805,6.029,13.2972,4.59981,2470.171,2020-10-10T04:47:44Z
2020-10-10T02:49:54Z,42.805,6.029,13.2974,4.59985,2470.194,2020-10-10T04:50:47Z
2020-10-10T02:52:57Z,42.805,6.029,13.2975,4.59981,2470.18,2020-10-10T04:53:50Z
2020-10-10T02:56:00Z,42.805,6.029,13.2974,4.59981,2470.156,2020-10-10T04:56:53Z
2020-10-10T02:59:03Z,42.805,6.029,13.2974,4.59980,2470.147,2020-10-10T04:59:57Z
2020-10-10T03:02:06Z,42.805,6.029,13.2973,4.59981,2470.18,2020-10-10T05:03:00Z
2020-10-10T03:05:09Z,42.805,6.029,13.2974,4.59983,2470.156,2020-10-10T05:06:03Z
2020-10-10T03:08:12Z,42.805,6.029,13.2974,4.59979,2470.156,2020-10-10T05:09:06Z
2020-10-10T03:11:15Z,42.805,6.029,13.2973,4.59981,2470.171,2020-10-10T05:12:09Z
2020-10-10T03:14:19Z,42.805,6.029,13.2976,4.59981,2470.156,2020-10-10T05:15:12Z
2020-10-10T03:17:22Z,42.805,6.029,13.2971,4.59978,2470.171,2020-10-10T05:18:15Z
2020-10-10T03:20:25Z,42.805,6.029,13.2973,4.59981,2470.156,2020-10-10T05:21:18Z
2020-10-10T03:23:28Z,42.805,6.029,13.2971,4.59980,2470.147,2020-10-10T05:24:22Z
2020-10-10T03:26:31Z,42.805,6.029,13.2974,4.59983,2470.156,2020-10-10T05:27:25Z
2020-10-10T03:29:34Z,42.805,6.029,13.2971,4.59983,2470.156,2020-10-10T05:30:28Z
2020-10-10T03:32:37Z,42.805,6.029,13.2973,4.59981,2470.156,2020-10-10T05:33:31Z
2020-10-10T03:35:40Z,42.805,6.029,13.2974,4.59980,2470.156,2020-10-10T05:36:34Z
2020-10-10T03:38:44Z,42.805,6.029,13.2974,4.59985,2470.156,2020-10-10T05:39:37Z
2020-10-10T03:41:47Z,42.805,6.029,13.2975,4.59984,2470.133,2020-10-10T05:42:40Z
2020-10-10T03:44:50Z,42.805,6.029,13.2973,4.59981,2470.18,2020-10-10T05:45:43Z
2020-10-10T03:47:53Z,42.805,6.029,13.2972,4.59983,2470.133,2020-10-10T05:48:46Z
2020-10-10T03:50:56Z,42.805,6.029,13.2974,4.59979,2470.156,2020-10-10T05:51:50Z
2020-10-10T03:53:59Z,42.805,6.029,13.2974,4.59981,2470.156,2020-10-10T05:54:53Z
2020-10-10T03:57:02Z,42.805,6.029,13.2971,4.59978,2470.133,2020-10-10T05:57:56Z
2020-10-10T04:00:05Z,42.805,6.029,13.2974,4.59980,2470.18,2020-10-10T06:00:59Z
2020-10-10T04:03:09Z,42.805,6.029,13.2968,4.59976,2470.156,2020-10-10T06:04:02Z
2020-10-10T04:06:12Z,42.805,6.029,13.2974,4.59981,2470.133,2020-10-10T06:07:05Z
2020-10-10T04:09:15Z,42.805,6.029,13.2971,4.59980,2470.194,2020-10-10T06:10:08Z
2020-10-10T04:12:18Z,42.805,6.029,13.2976,4.59983,2470.133,2020-10-10T06:13:11Z
2020-10-10T04:15:21Z,42.805,6.029,13.2975,4.59976,2470.147,2020-10-10T06:16:15Z
2020-10-10T04:18:24Z,42.805,6.029,13.2971,4.59982,2470.18,2020-10-10T06:19:18Z
2020-10-10T04:21:27Z,42.805,6.029,13.2974,4.59984,2470.156,2020-10-10T06:22:21Z
2020-10-10T04:24:30Z,42.805,6.029,13.2976,4.59985,2470.156,2020-10-10T06:25:24Z
2020-10-10T04:27:33Z,42.805,6.029,13.2972,4.59981,2470.133,2020-10-10T06:28:27Z
2020-10-10T04:30:37Z,42.805,6.029,13.2971,4.59983,2470.133,2020-10-10T06:31:30Z
2020-10-10T04:33:40Z,42.805,6.029,13.2973,4.59981,2470.194,2020-10-10T06:34:33Z
2020-10-10T04:36:43Z,42.805,6.029,13.2973,4.59983,2470.171,2020-10-10T06:37:36Z
2020-10-10T04:39:46Z,42.805,6.029,13.2971,4.59985,2470.133,2020-10-10T06:40:40Z
2020-10-10T04:42:49Z,42.805,6.029,13.2969,4.59981,2470.133,2020-10-10T06:43:43Z
2020-10-10T04:45:52Z,42.805,6.029,13.2971,4.59978,2470.133,2020-10-10T06:46:46Z
2020-10-10T04:48:55Z,42.805,6.029,13.2971,4.59983,2470.18,2020-10-10T06:49:49Z
2020-10-10T04:51:58Z,42.805,6.029,13.2972,4.59978,2470.156,2020-10-10T06:52:52Z
2020-10-10T04:55:02Z,42.805,6.029,13.2974,4.59980,2470.124,2020-10-10T06:55:55Z
2020-10-10T04:58:05Z,42.805,6.029,13.2971,4.59991,2470.18,2020-10-10T06:58:58Z
2020-10-10T05:01:08Z,42.805,6.029,13.2974,4.59983,2470.133,2020-10-10T07:02:01Z
2020-10-10T05:04:11Z,42.805,6.029,13.2972,4.59981,2470.119,2020-10-10T07:05:05Z
2020-10-10T05:07:14Z,42.805,6.029,13.2971,4.59982,2470.147,2020-10-10T07:08:08Z
2020-10-10T05:10:17Z,42.805,6.029,13.2974,4.59986,2470.171,2020-10-10T07:11:11Z
2020-10-10T05:13:20Z,42.805,6.029,13.2974,4.59983,2470.171,2020-10-10T07:14:14Z
2020-10-10T05:16:23Z,42.805,6.029,13.2974,4.59983,2470.147,2020-10-10T07:17:17Z
2020-10-10T05:19:27Z,42.805,6.029,13.2971,4.59979,2470.133,2020-10-10T07:20:20Z
2020-10-10T05:22:30Z,42.805,6.029,13.2976,4.59986,2470.156,2020-10-10T07:23:23Z
2020-10-10T05:25:33Z,42.805,6.029,13.2971,4.59986,2470.096,2020-10-10T07:26:26Z
2020-10-10T05:28:36Z,42.805,6.029,13.2971,4.59986,2470.133,2020-10-10T07:29:30Z
2020-10-10T05:31:39Z,42.805,6.029,13.2970,4.59980,2470.133,2020-10-10T07:32:33Z
2020-10-10T05:34:42Z,42.805,6.029,13.2976,4.59989,2470.133,2020-10-10T07:35:36Z
2020-10-10T05:37:45Z,42.805,6.029,13.2971,4.59982,2470.156,2020-10-10T07:38:39Z
2020-10-10T05:40:48Z,42.805,6.029,13.2971,4.59985,2470.133,2020-10-10T07:41:42Z
2020-10-10T05:43:52Z,42.805,6.029,13.2970,4.59986,2470.156,2020-10-10T07:44:45Z
2020-10-10T05:46:55Z,42.805,6.029,13.2972,4.59990,2470.156,2020-10-10T07:47:48Z
2020-10-10T05:49:58Z,42.805,6.029,13.2976,4.59982,2470.133,2020-10-10T07:50:51Z
2020-10-10T05:53:01Z,42.805,6.029,13.2971,4.59983,2470.11,2020-10-10T07:53:55Z
2020-10-10T05:56:04Z,42.805,6.029,13.2971,4.59984,2470.171,2020-10-10T07:56:58Z
2020-10-10T05:59:07Z,42.805,6.029,13.2976,4.59984,2470.133,2020-10-10T08:00:01Z
2020-10-10T06:02:10Z,42.805,6.029,13.2972,4.59981,2470.133,2020-10-10T08:03:04Z
2020-10-10T06:05:13Z,42.805,6.029,13.2971,4.59982,2470.124,2020-10-10T08:06:07Z
2020-10-10T06:08:17Z,42.805,6.029,13.2977,4.59985,2470.133,2020-10-10T08:09:10Z
2020-10-10T06:11:20Z,42.805,6.029,13.2973,4.59980,2470.124,2020-10-10T08:12:13Z
2020-10-10T06:14:23Z,42.805,6.029,13.2973,4.59981,2470.133,2020-10-10T08:15:16Z
2020-10-10T06:17:26Z,42.805,6.029,13.2972,4.59983,2470.11,2020-10-10T08:18:20Z
2020-10-10T06:20:29Z,42.805,6.029,13.2972,4.59989,2470.171,2020-10-10T08:21:23Z
2020-10-10T06:23:32Z,42.805,6.029,13.2974,4.59982,2470.11,2020-10-10T08:24:26Z
2020-10-10T06:26:35Z,42.805,6.029,13.2971,4.59983,2470.156,2020-10-10T08:27:29Z
2020-10-10T06:29:38Z,42.805,6.029,13.2973,4.59983,2470.133,2020-10-10T08:30:32Z
2020-10-10T06:32:42Z,42.805,6.029,13.2974,4.59988,2470.133,2020-10-10T08:33:35Z
2020-10-10T06:35:45Z,42.805,6.029,13.2973,4.59983,2470.147,2020-10-10T08:36:38Z
2020-10-10T06:38:48Z,42.805,6.029,13.2974,4.59982,2470.147,2020-10-10T08:39:41Z
2020-10-10T06:41:51Z,42.805,6.029,13.2974,4.59983,2470.124,2020-10-10T08:42:45Z
2020-10-10T06:44:54Z,42.805,6.029,13.2972,4.59982,2470.133,2020-10-10T08:45:48Z
2020-10-10T06:47:57Z,42.805,6.029,13.2974,4.59982,2470.133,2020-10-10T08:48:51Z
2020-10-10T06:51:00Z,42.805,6.029,13.2974,4.59986,2470.133,2020-10-10T08:51:54Z
2020-10-10T06:54:03Z,42.805,6.029,13.2973,4.59987,2470.119,2020-10-10T08:54:57Z
2020-10-10T06:57:07Z,42.805,6.029,13.2974,4.59986,2470.156,2020-10-10T08:58:00Z
2020-10-10T07:00:10Z,42.805,6.029,13.2973,4.59983,2470.147,2020-10-10T09:01:03Z
2020-10-10T07:03:13Z,42.805,6.029,13.2973,4.59988,2470.133,2020-10-10T09:04:06Z
2020-10-10T07:06:16Z,42.805,6.029,13.2972,4.59985,2470.133,2020-10-10T09:07:09Z
2020-10-10T07:09:19Z,42.805,6.029,13.2973,4.59981,2470.171,2020-10-10T09:10:13Z
2020-10-10T07:12:22Z,42.805,6.029,13.2974,4.59991,2470.133,2020-10-10T09:13:16Z
2020-10-10T07:15:25Z,42.805,6.029,13.2975,4.59991,2470.147,2020-10-10T09:16:19Z
2020-10-10T07:18:28Z,42.805,6.029,13.2975,4.59983,2470.156,2020-10-10T09:19:22Z
2020-10-10T07:21:31Z,42.805,6.029,13.2974,4.59983,2470.124,2020-10-10T09:22:25Z
2020-10-10T07:24:35Z,42.805,6.029,13.2974,4.59985,2470.124,2020-10-10T09:25:28Z
2020-10-10T07:27:38Z,42.805,6.029,13.2977,4.59992,2470.11,2020-10-10T09:28:31Z
2020-10-10T07:30:41Z,42.805,6.029,13.2976,4.59992,2470.147,2020-10-10T09:31:34Z
2020-10-10T07:33:44Z,42.805,6.029,13.2972,4.59988,2470.087,2020-10-10T09:34:38Z
2020-10-10T07:36:47Z,42.805,6.029,13.2974,4.59995,2470.11,2020-10-10T09:37:41Z
2020-10-10T07:39:50Z,42.805,6.029,13.2973,4.59992,2470.11,2020-10-10T09:40:44Z
2020-10-10T07:42:53Z,42.805,6.029,13.2970,4.59999,2470.147,2020-10-10T09:43:47Z
2020-10-10T07:45:56Z,42.805,6.029,13.2974,4.59994,2470.171,2020-10-10T09:46:50Z
2020-10-10T07:49:00Z,42.805,6.029,13.2971,4.59998,2470.156,2020-10-10T09:49:53Z
2020-10-10T07:52:03Z,42.805,6.029,13.2974,4.59991,2470.156,2020-10-10T09:52:56Z
2020-10-10T07:55:06Z,42.805,6.029,13.2974,4.59999,2470.171,2020-10-10T09:55:59Z
2020-10-10T07:58:09Z,42.805,6.029,13.2972,4.59996,2470.133,2020-10-10T09:59:03Z
2020-10-10T08:01:12Z,42.805,6.029,13.2973,4.59997,2470.147,2020-10-10T10:02:06Z
2020-10-10T08:04:15Z,42.805,6.029,13.2974,4.59983,2470.171,2020-10-10T10:05:09Z
2020-10-10T08:07:18Z,42.805,6.029,13.2971,4.59986,2470.11,2020-10-10T10:08:12Z
2020-10-10T08:10:21Z,42.805,6.029,13.2978,4.59995,2470.156,2020-10-10T10:11:15Z
2020-10-10T08:13:25Z,42.805,6.029,13.2978,4.59999,2470.171,2020-10-10T10:14:18Z
2020-10-10T08:16:28Z,42.805,6.029,13.2975,4.60001,2470.171,2020-10-10T10:17:21Z
2020-10-10T08:19:31Z,42.805,6.029,13.2983,4.60013,2470.156,2020-10-10T10:20:24Z
2020-10-10T08:22:34Z,42.805,6.029,13.3032,4.60005,2470.18,2020-10-10T10:23:28Z
2020-10-10T08:25:37Z,42.805,6.029,13.2982,4.60018,2470.133,2020-10-10T10:26:31Z
2020-10-10T08:28:40Z,42.805,6.029,13.2990,4.60014,2470.194,2020-10-10T10:29:34Z
2020-10-10T08:31:43Z,42.805,6.029,13.3021,4.60016,2470.156,2020-10-10T10:32:37Z
2020-10-10T08:34:46Z,42.805,6.029,13.3009,4.60032,2470.171,2020-10-10T10:35:40Z
2020-10-10T08:37:50Z,42.805,6.029,13.2993,4.60028,2470.18,2020-10-10T10:38:43Z
2020-10-10T08:40:53Z,42.805,6.029,13.3033,4.60031,2470.171,2020-10-10T10:41:46Z
2020-10-10T08:43:56Z,42.805,6.029,13.2997,4.60021,2470.156,2020-10-10T10:44:49Z
2020-10-10T08:46:59Z,42.805,6.029,13.3002,4.60014,2470.194,2020-10-10T10:47:53Z
2020-10-10T08:50:02Z,42.805,6.029,13.2986,4.60006,2470.156,2020-10-10T10:50:56Z
2020-10-10T08:53:05Z,42.805,6.029,13.3047,4.60040,2470.18,2020-10-10T10:53:59Z
2020-10-10T08:56:08Z,42.805,6.029,13.3025,4.60006,2470.156,2020-10-10T10:57:02Z
2020-10-10T08:59:11Z,42.805,6.029,13.3009,4.60009,2470.18,2020-10-10T11:00:05Z
2020-10-10T09:02:15Z,42.805,6.029,13.2986,4.60013,2470.217,2020-10-10T11:03:08Z
2020-10-10T09:05:18Z,42.805,6.029,13.3000,4.60074,2470.166,2020-10-10T11:06:11Z
2020-10-10T09:08:21Z,42.805,6.029,13.3018,4.60025,2470.171,2020-10-10T11:09:15Z
2020-10-10T09:11:24Z,42.805,6.029,13.2995,4.60014,2470.18,2020-10-10T11:12:18Z
2020-10-10T09:14:27Z,42.805,6.029,13.3002,4.60011,2470.156,2020-10-10T11:15:21Z
2020-10-10T09:17:30Z,42.805,6.029,13.3015,4.60008,2470.194,2020-10-10T11:18:24Z
2020-10-10T09:20:33Z,42.805,6.029,13.3000,4.60021,2470.18,2020-10-10T11:21:27Z
2020-10-10T09:23:37Z,42.805,6.029,13.2999,4.60019,2470.217,2020-10-10T11:24:30Z
2020-10-10T09:26:40Z,42.805,6.029,13.3023,4.60014,2470.194,2020-10-10T11:27:33Z
2020-10-10T09:29:43Z,42.805,6.029,13.3010,4.60022,2470.143,2020-10-10T11:30:36Z
2020-10-10T09:32:46Z,42.805,6.029,13.3013,4.60010,2470.203,2020-10-10T11:33:40Z
2020-10-10T09:35:49Z,42.805,6.029,13.3015,4.60027,2470.194,2020-10-10T11:36:43Z
2020-10-10T09:38:52Z,42.805,6.029,13.3020,4.60009,2470.217,2020-10-10T11:39:46Z
2020-10-10T09:41:55Z,42.805,6.029,13.3018,4.60009,2470.18,2020-10-10T11:42:49Z
2020-10-10T09:44:58Z,42.805,6.029,13.3003,4.60001,2470.217,2020-10-10T11:45:52Z
2020-10-10T09:48:02Z,42.805,6.029,13.3010,4.60003,2470.217,2020-10-10T11:48:55Z
2020-10-10T09:51:05Z,42.805,6.029,13.3008,4.60019,2470.203,2020-10-10T11:51:58Z
2020-10-10T09:54:08Z,42.805,6.029,13.3005,4.60016,2470.217,2020-10-10T11:55:01Z
2020-10-10T09:57:11Z,42.805,6.029,13.2999,4.60021,2470.194,2020-10-10T11:58:05Z
2020-10-10T10:00:14Z,42.805,6.029,13.3036,4.60029,2470.203,2020-10-10T12:01:08Z
2020-10-10T10:03:17Z,42.805,6.029,13.3000,4.59996,2470.24,2020-10-10T12:04:11Z
2020-10-10T10:06:20Z,42.805,6.029,13.3004,4.60000,2470.203,2020-10-10T12:07:14Z
2020-10-10T10:09:23Z,42.805,6.029,13.3013,4.60007,2470.18,2020-10-10T12:10:17Z
2020-10-10T10:12:27Z,42.805,6.029,13.3009,4.60005,2470.25,2020-10-10T12:13:20Z
2020-10-10T10:15:30Z,42.805,6.029,13.2996,4.60001,2470.227,2020-10-10T12:16:23Z
2020-10-10T10:18:33Z,42.805,6.029,13.2994,4.60024,2470.18,2020-10-10T12:19:26Z
2020-10-10T10:21:36Z,42.805,6.029,13.3003,4.60026,2470.18,2020-10-10T12:22:30Z
2020-10-10T10:24:39Z,42.805,6.029,13.3006,4.60019,2470.203,2020-10-10T12:25:33Z
2020-10-10T10:27:42Z,42.805,6.029,13.3005,4.60005,2470.171,2020-10-10T12:28:36Z
2020-10-10T10:30:45Z,42.805,6.029,13.2997,4.60005,2470.18,2020-10-10T12:31:39Z
2020-10-10T10:33:48Z,42.805,6.029,13.2981,4.60014,2470.203,2020-10-10T12:34:42Z
2020-10-10T10:36:52Z,42.805,6.029,13.3009,4.60003,2470.264,2020-10-10T12:37:45Z
2020-10-10T10:39:55Z,42.805,6.029,13.2991,4.59997,2470.203,2020-10-10T12:40:48Z
2020-10-10T10:42:58Z,42.805,6.029,13.2998,4.60012,2470.203,2020-10-10T12:43:51Z
2020-10-10T10:46:01Z,42.805,6.029,13.3010,4.60005,2470.25,2020-10-10T12:46:55Z
2020-10-10T10:49:04Z,42.805,6.029,13.2991,4.60028,2470.24,2020-10-10T12:49:58Z
2020-10-10T10:52:07Z,42.805,6.029,13.3000,4.60014,2470.227,2020-10-10T12:53:01Z
2020-10-10T10:55:10Z,42.805,6.029,13.2994,4.60011,2470.203,2020-10-10T12:56:04Z
2020-10-10T10:58:13Z,42.805,6.029,13.2996,4.60029,2470.227,2020-10-10T12:59:07Z
2020-10-10T11:01:17Z,42.805,6.029,13.3007,4.60019,2470.227,2020-10-10T13:02:10Z
2020-10-10T11:04:20Z,42.805,6.029,13.2999,4.60011,2470.264,2020-10-10T13:05:13Z
2020-10-10T11:07:23Z,42.805,6.029,13.3006,4.60005,2470.227,2020-10-10T13:08:16Z
2020-10-10T11:10:26Z,42.805,6.029,13.2998,4.60018,2470.203,2020-10-10T13:11:20Z
2020-10-10T11:13:29Z,42.805,6.029,13.2997,4.60009,2470.217,2020-10-10T13:14:23Z
2020-10-10T11:16:32Z,42.805,6.029,13.3004,4.60021,2470.203,2020-10-10T13:17:26Z
2020-10-10T11:19:35Z,42.805,6.029,13.3011,4.60026,2470.203,2020-10-10T13:20:29Z
2020-10-10T11:22:39Z,42.805,6.029,13.2982,4.60008,2470.25,2020-10-10T13:23:32Z
2020-10-10T11:25:42Z,42.805,6.029,13.2984,4.60004,2470.24,2020-10-10T13:26:35Z
2020-10-10T11:28:45Z,42.805,6.029,13.2995,4.60005,2470.25,2020-10-10T13:29:38Z
2020-10-10T11:31:48Z,42.805,6.029,13.2983,4.60007,2470.25,2020-10-10T13:32:42Z
2020-10-10T11:34:51Z,42.805,6.029,13.2978,4.60009,2470.227,2020-10-10T13:35:45Z
2020-10-10T11:37:54Z,42.805,6.029,13.2982,4.60023,2470.25,2020-10-10T13:38:48Z
2020-10-10T11:40:57Z,42.805,6.029,13.2978,4.60003,2470.273,2020-10-10T13:41:51Z
2020-10-10T11:44:00Z,42.805,6.029,13.2984,4.60002,2470.203,2020-10-10T13:44:54Z
2020-10-10T11:47:04Z,42.805,6.029,13.2974,4.59987,2470.25,2020-10-10T13:47:57Z
2020-10-10T11:50:07Z,42.805,6.029,13.2975,4.59983,2470.25,2020-10-10T13:51:00Z
2020-10-10T11:53:10Z,42.805,6.029,13.2968,4.59985,2470.25,2020-10-10T13:54:03Z
2020-10-10T11:56:13Z,42.805,6.029,13.2973,4.59984,2470.24,2020-10-10T13:57:07Z
2020-10-10T11:59:16Z,42.805,6.029,13.2972,4.59981,2470.25,2020-10-10T14:00:10Z
2020-10-10T12:02:19Z,42.805,6.029,13.2973,4.59986,2470.227,2020-10-10T14:03:13Z
2020-10-10T12:05:22Z,42.805,6.029,13.2972,4.59984,2470.25,2020-10-10T14:06:16Z
2020-10-10T12:08:25Z,42.805,6.029,13.2977,4.59986,2470.227,2020-10-10T14:09:19Z
2020-10-10T12:11:29Z,42.805,6.029,13.2971,4.59982,2470.203,2020-10-10T14:12:22Z
2020-10-10T12:14:32Z,42.805,6.029,13.2974,4.59981,2470.25,2020-10-10T14:15:25Z
2020-10-10T12:17:35Z,42.805,6.029,13.2974,4.59983,2470.25,2020-10-10T14:18:29Z
2020-10-10T12:20:38Z,42.805,6.029,13.2976,4.59981,2470.25,2020-10-10T14:21:32Z
2020-10-10T12:23:41Z,42.805,6.029,13.2972,4.59981,2470.25,2020-10-10T14:24:35Z
2020-10-10T12:26:44Z,42.805,6.029,13.2974,4.59980,2470.287,2020-10-10T14:27:38Z
2020-10-10T12:29:47Z,42.805,6.029,13.2971,4.59984,2470.297,2020-10-10T14:30:41Z
2020-10-10T12:32:51Z,42.805,6.029,13.2974,4.59983,2470.227,2020-10-10T14:33:44Z
2020-10-10T12:35:54Z,42.805,6.029,13.2974,4.59979,2470.227,2020-10-10T14:36:47Z
2020-10-10T12:38:57Z,42.805,6.029,13.2970,4.59983,2470.264,2020-10-10T14:39:50Z
2020-10-10T12:42:00Z,42.805,6.029,13.2976,4.59983,2470.25,2020-10-10T14:42:54Z
2020-10-10T12:45:03Z,42.805,6.029,13.2974,4.59979,2470.25,2020-10-10T14:45:57Z
2020-10-10T12:48:06Z,42.805,6.029,13.2968,4.59981,2470.25,2020-10-10T14:49:00Z
2020-10-10T12:51:09Z,42.805,6.029,13.2973,4.59978,2470.203,2020-10-10T14:52:03Z
2020-10-10T12:54:12Z,42.805,6.029,13.2975,4.59979,2470.227,2020-10-10T14:55:06Z
2020-10-10T12:57:16Z,42.805,6.029,13.2973,4.59978,2470.25,2020-10-10T14:58:09Z
2020-10-10T13:00:19Z,42.805,6.029,13.2977,4.59979,2470.25,2020-10-10T15:01:12Z
2020-10-10T13:03:22Z,42.805,6.029,13.2974,4.59978,2470.25,2020-10-10T15:04:15Z
2020-10-10T13:06:25Z,42.805,6.029,13.2973,4.59978,2470.264,2020-10-10T15:07:19Z
2020-10-10T13:09:28Z,42.805,6.029,13.2973,4.59980,2470.25,2020-10-10T15:10:22Z
2020-10-10T13:12:31Z,42.805,6.029,13.2973,4.59978,2470.287,2020-10-10T15:13:25Z
2020-10-10T13:15:34Z,42.805,6.029,13.2974,4.59978,2470.264,2020-10-10T15:16:28Z
2020-10-10T13:18:37Z,42.805,6.029,13.2973,4.59980,2470.287,2020-10-10T15:19:31Z
2020-10-10T13:21:41Z,42.805,6.029,13.2974,4.59981,2470.264,2020-10-10T15:22:34Z
2020-10-10T13:24:44Z,42.805,6.029,13.2975,4.59981,2470.227,2020-10-10T15:25:37Z
2020-10-10T13:27:47Z,42.805,6.029,13.2976,4.59984,2470.287,2020-10-10T15:28:40Z
2020-10-10T13:30:50Z,42.805,6.029,13.2973,4.59982,2470.31,2020-10-10T15:31:44Z
2020-10-10T13:33:53Z,42.805,6.029,13.2972,4.59980,2470.287,2020-10-10T15:34:47Z
2020-10-10T13:36:56Z,42.805,6.029,13.2968,4.59980,2470.24,2020-10-10T15:37:50Z
2020-10-10T13:39:59Z,42.805,6.029,13.2975,4.59980,2470.264,2020-10-10T15:40:53Z
2020-10-10T13:43:02Z,42.805,6.029,13.2971,4.59979,2470.287,2020-10-10T15:43:56Z
2020-10-10T13:46:06Z,42.805,6.029,13.2975,4.59979,2470.24,2020-10-10T15:46:59Z
2020-10-10T13:49:09Z,42.805,6.029,13.2968,4.59978,2470.227,2020-10-10T15:50:02Z
2020-10-10T13:52:12Z,42.805,6.029,13.2972,4.59981,2470.24,2020-10-10T15:53:05Z
2020-10-10T13:55:15Z,42.805,6.029,13.2972,4.59978,2470.217,2020-10-10T15:56:09Z
2020-10-10T13:58:18Z,42.805,6.029,13.2972,4.59982,2470.25,2020-10-10T15:59:12Z
2020-10-10T14:01:21Z,42.805,6.029,13.2977,4.59980,2470.264,2020-10-10T16:02:15Z
2020-10-10T14:04:24Z,42.805,6.029,13.2971,4.59983,2470.24,2020-10-10T16:05:18Z
2020-10-10T14:07:27Z,42.805,6.029,13.2974,4.59986,2470.24,2020-10-10T16:08:21Z
2020-10-10T14:10:31Z,42.805,6.029,13.2974,4.59982,2470.227,2020-10-10T16:11:24Z
2020-10-10T14:13:34Z,42.805,6.029,13.2974,4.59984,2470.287,2020-10-10T16:14:27Z
2020-10-10T14:16:37Z,42.805,6.029,13.2973,4.59987,2470.24,2020-10-10T16:17:30Z
2020-10-10T14:19:40Z,42.805,6.029,13.2974,4.59981,2470.26,2020-10-10T16:20:34Z
2020-10-10T14:22:43Z,42.805,6.029,13.2976,4.59979,2470.264,2020-10-10T16:23:37Z
2020-10-10T14:25:46Z,42.805,6.029,13.2972,4.59979,2470.25,2020-10-10T16:26:40Z
2020-10-10T14:28:49Z,42.805,6.029,13.2972,4.59989,2470.25,2020-10-10T16:29:43Z
2020-10-10T14:31:52Z,42.805,6.029,13.2974,4.59981,2470.227,2020-10-10T16:32:46Z
2020-10-10T14:34:56Z,42.805,6.029,13.2971,4.59982,2470.25,2020-10-10T16:35:49Z
2020-10-10T14:37:59Z,42.805,6.029,13.2971,4.59980,2470.264,2020-10-10T16:38:52Z
2020-10-10T14:41:02Z,42.805,6.029,13.2977,4.59983,2470.227,2020-10-10T16:41:56Z
2020-10-10T14:44:05Z,42.805,6.029,13.2970,4.59980,2470.227,2020-10-10T16:44:59Z
2020-10-10T14:47:08Z,42.805,6.029,13.2976,4.59986,2470.227,2020-10-10T16:48:02Z
2020-10-10T14:50:11Z,42.805,6.029,13.2978,4.59981,2470.227,2020-10-10T16:51:05Z
2020-10-10T14:53:14Z,42.805,6.029,13.2971,4.59986,2470.264,2020-10-10T16:54:08Z
2020-10-10T14:56:17Z,42.805,6.029,13.2974,4.59981,2470.264,2020-10-10T16:57:11Z
2020-10-10T14:59:21Z,42.805,6.029,13.2971,4.59982,2470.25,2020-10-10T17:00:14Z
2020-10-10T15:02:24Z,42.805,6.029,13.2971,4.59981,2470.227,2020-10-10T17:03:17Z